Flag for Germany Weather past 2 weeks in Fürstenwalde/Spree, Brandenburg, Germany

Now
56 °F

Fog.


Feels Like: 56 °F
Forecast: 54 / 68 °F
Wind: 1 mph from South

Location: Lindenberg

Current Time: Oct 2, 2014 at 12:27:43 AM

Latest Report: Oct 2, 2014 at 12:00 AM


Visibility: 4 mi

Pressure: 30.34 "Hg

Humidity: 97%

Dew point: 56 °F

Location of Fürstenwalde/SpreeLocation

Historic Weather in Fürstenwalde/Spree — Graph

°F

Fürstenwalde/Spree temperature yesterday

Maximum temperature yesterday: 66 °F (at 4:00 PM)
Minimum temperature yesterday: 54 °F (at 6:00 AM)
Average temperature yesterday: 59 °F

Past Weeks' High & Low Weather Summary

 TemperatureHumidityPressure
High74 °F (Sep 18, 4:00 PM)100% (Sep 20, 1:00 AM)30.37 "Hg (Sep 20, 1:00 AM)
Low40 °F (Sep 24, 7:00 AM)45% (Sep 18, 4:00 PM)29.77 "Hg (Sep 22, 1:00 PM)
Average58 °F84%30.06 "Hg
* Reported Sep 16 10:00 PM — Oct 1 10:00 PM, Fürstenwalde/Spree, Weather by CustomWeather, © 2014

Note: Actual official high and low records may vary slightly from our data, if they occured in-between our weather recording intervals... More about our weather records

Advertising

Fürstenwalde/Spree weather history for previous 24 hours

 ConditionsComfort  
Time TempWeatherWind HumidityBarometerVisibility
10:00 PM
Oct 1
59 °FFog.2 mph93%30.34 "Hg4 mi
9:00 PM60 °FFog.2 mph93%30.33 "Hg4 mi
8:00 PM60 °FFog.2 mph90%30.32 "Hg4 mi
7:00 PM60 °FFog.1 mph90%30.31 "Hg4 mi
6:00 PM65 °FPartly sunny.1 mph81%30.30 "Hg6 mi
4:00 PM66 °FPartly sunny.1 mph75%30.29 "Hg5 mi
3:00 PM65 °FPartly sunny.2 mph80%30.31 "Hg5 mi
2:00 PM62 °FFog.2 mph91%30.32 "Hg3 mi
1:00 PM60 °FFog.2 mph98%30.32 "Hg2 mi
12:00 PM58 °FFog.3 mph100%30.32 "Hg1 mi
11:00 AM58 °FFog.1 mph100%30.32 "Hg1 mi
10:00 AM57 °FFog.1 mph100%30.31 "Hg0 mi
9:00 AM56 °FFog.2 mph100%30.30 "Hg0 mi
8:00 AM55 °FFog.1 mph100%30.29 "Hg0 mi
7:00 AM55 °FFog.1 mph100%30.28 "Hg1 mi
6:00 AM54 °FFog.1 mph100%30.29 "Hg0 mi
4:00 AM55 °FFog.1 mph100%30.29 "Hg0 mi
3:00 AM56 °FFog.1 mph100%30.29 "Hg0 mi
2:00 AM56 °FFog.2 mph99%30.28 "Hg0 mi
1:00 AM57 °FFog.2 mph99%30.28 "Hg0 mi
12:00 AM57 °FFog.1 mph99%30.28 "Hg1 mi
Weather by CustomWeather, © 2014

See weather overviewHow to use our weather pages